VLG81AB LECO-LEBL

Flight info

Callsign VLG81AB
Flight time 1h 24m
Altitude 32000
Route ROXER DCT LASKU/N0426F310 DCT RONSI DCT OBETO/N0428F320 M190 BLV M601 RONNY/N0425F310 DCT SURCO/N0426F320 M601 GRAUS
Aircraft A320/M-SDFGHILORVWXY/LB1

Departure

Time 2026-05-08 10:56
Airport A Coruña Airport (LECO)

Arrival

Time 2026-05-08 12:20
Airport Josep Tarradellas Barcelona-El Prat Airport (LEBL)
Time Latitude Longitude Altitude Speed Heading
2026-05-08 10:27 43.30249 -8.38014 341 ft 0 kts 301°
2026-05-08 10:46 43.30249 -8.38013 340 ft 1 kts 301°
2026-05-08 10:46 43.30238 -8.37989 336 ft 3 kts 296°
2026-05-08 10:47 43.30231 -8.37962 335 ft 3 kts 262°
2026-05-08 10:47 43.30236 -8.37945 335 ft 0 kts 211°
2026-05-08 10:49 43.30236 -8.37946 335 ft 0 kts 211°
2026-05-08 10:50 43.30225 -8.37955 335 ft 3 kts 212°
2026-05-08 10:50 43.30206 -8.37971 337 ft 4 kts 212°
2026-05-08 10:50 43.30178 -8.37994 336 ft 6 kts 210°
2026-05-08 10:50 43.30139 -8.38026 338 ft 7 kts 211°
2026-05-08 10:51 43.30096 -8.38060 338 ft 8 kts 206°
2026-05-08 10:51 43.30041 -8.38073 341 ft 8 kts 180°
2026-05-08 10:51 43.30028 -8.38073 341 ft 0 kts 177°
2026-05-08 10:52 43.30026 -8.38073 341 ft 1 kts 177°
2026-05-08 10:52 43.29987 -8.38062 341 ft 9 kts 154°
2026-05-08 10:52 43.29942 -8.37995 350 ft 10 kts 130°
2026-05-08 10:53 43.29872 -8.37995 344 ft 14 kts 209°
2026-05-08 10:53 43.29779 -8.38072 338 ft 17 kts 211°
2026-05-08 10:53 43.29671 -8.38165 335 ft 20 kts 213°
2026-05-08 10:53 43.29544 -8.38270 336 ft 22 kts 208°
2026-05-08 10:54 43.29403 -8.38375 335 ft 24 kts 208°
2026-05-08 10:54 43.29307 -8.38450 337 ft 15 kts 210°
2026-05-08 10:54 43.29257 -8.38534 338 ft 10 kts 242°
2026-05-08 10:54 43.29200 -8.38595 335 ft 10 kts 172°
2026-05-08 10:55 43.29210 -8.38534 335 ft 8 kts 35°
2026-05-08 10:55 43.29213 -8.38532 335 ft 0 kts 33°
2026-05-08 10:56 43.29240 -8.38509 335 ft 18 kts 31°
2026-05-08 10:56 43.29590 -8.38226 338 ft 95 kts 30°
2026-05-08 10:56 43.30327 -8.37625 357 ft 147 kts 31°
2026-05-08 10:56 43.31188 -8.36938 991 ft 138 kts 33°
2026-05-08 10:57 43.31916 -8.36060 1505 ft 146 kts 47°
2026-05-08 10:57 43.32524 -8.34852 1881 ft 161 kts 60°
2026-05-08 10:57 43.33340 -8.31695 2503 ft 199 kts 75°
2026-05-08 10:58 43.33733 -8.29774 3000 ft 214 kts 75°
2026-05-08 10:58 43.34138 -8.27802 3840 ft 217 kts 76°
2026-05-08 10:58 43.34550 -8.25793 4630 ft 220 kts 76°
2026-05-08 10:58 43.34969 -8.23744 5369 ft 226 kts 76°
2026-05-08 10:59 43.35402 -8.21646 6096 ft 231 kts 76°
2026-05-08 10:59 43.35848 -8.19497 6829 ft 236 kts 77°
2026-05-08 10:59 43.36297 -8.17318 7591 ft 239 kts 77°
2026-05-08 10:59 43.36533 -8.15062 8355 ft 239 kts 95°
2026-05-08 11:00 43.36264 -8.12736 8744 ft 257 kts 109°
2026-05-08 11:00 43.35779 -8.10293 9140 ft 278 kts 108°
2026-05-08 11:00 43.35266 -8.07686 9837 ft 286 kts 108°
2026-05-08 11:00 43.34740 -8.04981 10295 ft 304 kts 108°
2026-05-08 11:01 43.34178 -8.02077 10562 ft 325 kts 107°
2026-05-08 11:01 43.33594 -7.99033 11130 ft 333 kts 107°
2026-05-08 11:01 43.33003 -7.95934 11829 ft 338 kts 107°
2026-05-08 11:01 43.32405 -7.92796 12531 ft 342 kts 106°
2026-05-08 11:02 43.31798 -7.89620 13234 ft 346 kts 106°
2026-05-08 11:02 43.30556 -7.83153 14510 ft 354 kts 106°
2026-05-08 11:02 43.29925 -7.79871 15112 ft 357 kts 106°
2026-05-08 11:03 43.29283 -7.76560 15695 ft 360 kts 106°
2026-05-08 11:03 43.28632 -7.73222 16306 ft 364 kts 106°
2026-05-08 11:03 43.27977 -7.69849 16912 ft 367 kts 106°
2026-05-08 11:03 43.27315 -7.66449 17532 ft 370 kts 106°
2026-05-08 11:04 43.26646 -7.63019 18147 ft 374 kts 106°
2026-05-08 11:04 43.25973 -7.59559 18682 ft 377 kts 106°
2026-05-08 11:04 43.25293 -7.56075 19221 ft 380 kts 106°
2026-05-08 11:04 43.24606 -7.52560 19772 ft 383 kts 106°
2026-05-08 11:05 43.23911 -7.49022 20313 ft 386 kts 106°
2026-05-08 11:05 43.23218 -7.45508 20830 ft 388 kts 106°
2026-05-08 11:05 43.22509 -7.41918 21331 ft 392 kts 106°
2026-05-08 11:05 43.21870 -7.38279 21821 ft 395 kts 100°
2026-05-08 11:06 43.21656 -7.34507 22313 ft 399 kts 90°
2026-05-08 11:06 43.21933 -7.30709 22806 ft 403 kts 81°
2026-05-08 11:06 43.22431 -7.26916 23293 ft 406 kts 81°
2026-05-08 11:06 43.22926 -7.23091 23728 ft 409 kts 81°
2026-05-08 11:07 43.23418 -7.19241 24133 ft 411 kts 81°
2026-05-08 11:07 43.23909 -7.15367 24540 ft 414 kts 81°
2026-05-08 11:07 43.24404 -7.11460 24940 ft 417 kts 81°
2026-05-08 11:07 43.24899 -7.07532 25342 ft 419 kts 80°
2026-05-08 11:08 43.25396 -7.03581 25746 ft 422 kts 81°
2026-05-08 11:08 43.25894 -6.99601 26143 ft 424 kts 80°
2026-05-08 11:08 43.26392 -6.95605 26529 ft 427 kts 80°
2026-05-08 11:08 43.26892 -6.91578 26913 ft 429 kts 80°
2026-05-08 11:09 43.27396 -6.87530 27293 ft 432 kts 80°
2026-05-08 11:09 43.27903 -6.83460 27677 ft 434 kts 80°
2026-05-08 11:09 43.28413 -6.79361 28065 ft 437 kts 80°
2026-05-08 11:09 43.28922 -6.75246 28445 ft 439 kts 80°
2026-05-08 11:10 43.29425 -6.71157 28816 ft 441 kts 81°
2026-05-08 11:10 43.29933 -6.66993 29194 ft 444 kts 81°
2026-05-08 11:10 43.30441 -6.62799 29575 ft 446 kts 81°
2026-05-08 11:10 43.30952 -6.58586 29927 ft 449 kts 81°
2026-05-08 11:11 43.31466 -6.54349 30241 ft 451 kts 81°
2026-05-08 11:11 43.31983 -6.50091 30546 ft 453 kts 81°
2026-05-08 11:11 43.32499 -6.45814 30906 ft 454 kts 81°
2026-05-08 11:11 43.33014 -6.41539 31361 ft 453 kts 81°
2026-05-08 11:12 43.33526 -6.37273 31768 ft 453 kts 81°
2026-05-08 11:12 43.34033 -6.33012 31878 ft 449 kts 81°
2026-05-08 11:12 43.34532 -6.28817 31899 ft 442 kts 81°
2026-05-08 11:13 43.35509 -6.20543 31894 ft 437 kts 82°
2026-05-08 11:13 43.36475 -6.12312 31893 ft 436 kts 82°
2026-05-08 11:14 43.37435 -6.04090 31894 ft 435 kts 82°
2026-05-08 11:14 43.38395 -5.95876 31893 ft 435 kts 82°
2026-05-08 11:15 43.39336 -5.87723 31894 ft 435 kts 82°
2026-05-08 11:15 43.40272 -5.79517 31893 ft 434 kts 83°
2026-05-08 11:16 43.41210 -5.71313 31892 ft 434 kts 83°
2026-05-08 11:16 43.42137 -5.63103 31893 ft 434 kts 83°
2026-05-08 11:17 43.43061 -5.54895 31889 ft 434 kts 83°
2026-05-08 11:17 43.43976 -5.46688 31892 ft 434 kts 83°
2026-05-08 11:18 43.44887 -5.38487 31893 ft 433 kts 84°
2026-05-08 11:18 43.45793 -5.30284 31889 ft 433 kts 84°
2026-05-08 11:19 43.46685 -5.22138 31883 ft 433 kts 84°
2026-05-08 11:19 43.47576 -5.13938 31887 ft 433 kts 84°
2026-05-08 11:20 43.48451 -5.05744 31878 ft 433 kts 85°
2026-05-08 11:20 43.49328 -4.97547 31878 ft 433 kts 84°
2026-05-08 11:21 43.50193 -4.89350 31874 ft 432 kts 87°
2026-05-08 11:21 43.50119 -4.81167 31868 ft 427 kts 97°
2026-05-08 11:22 43.49683 -4.73014 31874 ft 427 kts 98°
2026-05-08 11:22 43.49240 -4.64869 31866 ft 426 kts 98°
2026-05-08 11:23 43.48798 -4.56730 31867 ft 426 kts 98°
2026-05-08 11:23 43.48351 -4.48597 31864 ft 426 kts 98°
2026-05-08 11:24 43.47945 -4.40458 31855 ft 426 kts 97°
2026-05-08 11:24 43.47569 -4.32374 31867 ft 426 kts 98°
2026-05-08 11:25 43.47124 -4.24256 31862 ft 425 kts 98°
2026-05-08 11:25 43.46610 -4.16150 31864 ft 425 kts 99°
2026-05-08 11:26 43.46088 -4.08059 31862 ft 424 kts 99°
2026-05-08 11:26 43.45579 -3.99968 31862 ft 424 kts 99°
2026-05-08 11:27 43.45073 -3.91876 31862 ft 424 kts 99°
2026-05-08 11:27 43.44066 -3.83934 31865 ft 421 kts 105°
2026-05-08 11:27 43.43486 -3.79987 31735 ft 418 kts 105°
2026-05-08 11:28 43.42916 -3.76116 31864 ft 410 kts 105°
2026-05-08 11:28 43.41978 -3.69762 31864 ft 407 kts 105°
2026-05-08 11:29 43.40848 -3.62146 31865 ft 407 kts 105°
2026-05-08 11:29 43.39525 -3.53291 31866 ft 407 kts 105°
2026-05-08 11:30 43.38571 -3.46900 31868 ft 407 kts 105°
2026-05-08 11:30 43.37431 -3.39329 31869 ft 407 kts 105°
2026-05-08 11:31 43.36279 -3.31705 31867 ft 408 kts 105°
2026-05-08 11:31 43.35139 -3.24069 31870 ft 408 kts 105°
2026-05-08 11:32 43.34012 -3.16422 31870 ft 408 kts 105°
2026-05-08 11:32 43.32879 -3.08777 31873 ft 409 kts 105°
2026-05-08 11:33 43.31724 -3.01126 31872 ft 409 kts 105°
2026-05-08 11:33 43.30406 -2.93542 31870 ft 406 kts 114°
2026-05-08 11:34 43.27783 -2.86786 31870 ft 401 kts 125°
2026-05-08 11:34 43.24789 -2.80326 31867 ft 402 kts 125°
2026-05-08 11:35 43.21794 -2.73853 31870 ft 402 kts 125°
2026-05-08 11:35 43.18799 -2.67367 31871 ft 403 kts 125°
2026-05-08 11:36 43.15795 -2.60877 31878 ft 404 kts 125°
2026-05-08 11:36 43.12777 -2.54398 31896 ft 404 kts 125°
2026-05-08 11:37 43.09777 -2.47966 31893 ft 404 kts 125°
2026-05-08 11:37 43.06747 -2.41486 31900 ft 405 kts 125°
2026-05-08 11:38 43.03711 -2.35003 31908 ft 405 kts 125°
2026-05-08 11:38 43.00671 -2.28518 31918 ft 405 kts 125°
2026-05-08 11:39 42.97624 -2.22042 31920 ft 405 kts 125°
2026-05-08 11:39 42.94603 -2.15543 31919 ft 405 kts 125°
2026-05-08 11:40 42.91585 -2.09032 31936 ft 406 kts 125°
2026-05-08 11:40 42.88574 -2.02585 31947 ft 406 kts 125°
2026-05-08 11:41 42.85543 -1.96104 31955 ft 405 kts 126°
2026-05-08 11:41 42.82507 -1.89624 31966 ft 406 kts 126°
2026-05-08 11:42 42.79474 -1.83150 31975 ft 406 kts 126°
2026-05-08 11:42 42.76432 -1.76685 31978 ft 405 kts 126°
2026-05-08 11:43 42.73413 -1.70208 31974 ft 407 kts 122°
2026-05-08 11:43 42.70938 -1.63263 31973 ft 408 kts 119°
2026-05-08 11:44 42.68490 -1.56287 31966 ft 409 kts 119°
2026-05-08 11:44 42.66034 -1.49315 31955 ft 409 kts 119°
2026-05-08 11:45 42.63588 -1.42387 31957 ft 410 kts 119°
2026-05-08 11:45 42.61120 -1.35402 31958 ft 410 kts 119°
2026-05-08 11:46 42.58640 -1.28424 31964 ft 411 kts 119°
2026-05-08 11:46 42.56157 -1.21440 31965 ft 411 kts 119°
2026-05-08 11:47 42.53674 -1.14464 31969 ft 411 kts 119°
2026-05-08 11:47 42.51180 -1.07489 31965 ft 411 kts 119°
2026-05-08 11:48 42.48680 -1.00510 31970 ft 412 kts 119°
2026-05-08 11:48 42.46200 -0.93582 31978 ft 412 kts 119°
2026-05-08 11:49 42.43687 -0.86608 31970 ft 412 kts 120°
2026-05-08 11:49 42.41163 -0.79623 31982 ft 413 kts 120°
2026-05-08 11:50 42.38634 -0.72640 31991 ft 414 kts 120°
2026-05-08 11:50 42.36102 -0.65656 31993 ft 414 kts 120°
2026-05-08 11:51 42.33562 -0.58678 32004 ft 414 kts 120°
2026-05-08 11:51 42.31025 -0.51708 32010 ft 414 kts 120°
2026-05-08 11:52 42.28493 -0.44767 32015 ft 414 kts 120°
2026-05-08 11:52 42.25937 -0.37792 32018 ft 415 kts 120°
2026-05-08 11:53 42.23357 -0.30763 32020 ft 415 kts 120°
2026-05-08 11:53 42.20806 -0.23836 32020 ft 415 kts 120°
2026-05-08 11:54 42.18240 -0.16862 32017 ft 416 kts 120°
2026-05-08 11:54 42.15659 -0.09878 32012 ft 416 kts 120°
2026-05-08 11:55 42.13073 -0.02903 32007 ft 416 kts 120°
2026-05-08 11:55 42.10477 0.04066 32004 ft 417 kts 120°
2026-05-08 11:55 42.09179 0.07553 31858 ft 413 kts 120°
2026-05-08 11:56 42.07905 0.10977 31603 ft 407 kts 120°
2026-05-08 11:56 42.06642 0.14363 31243 ft 403 kts 120°
2026-05-08 11:56 42.05390 0.17719 30767 ft 401 kts 121°
2026-05-08 11:56 42.04140 0.21060 30305 ft 399 kts 121°
2026-05-08 11:57 42.02894 0.24379 29779 ft 397 kts 121°
2026-05-08 11:57 42.01651 0.27690 29286 ft 394 kts 121°
2026-05-08 11:57 42.00421 0.30966 28850 ft 391 kts 121°
2026-05-08 11:57 41.99201 0.34213 28439 ft 388 kts 121°
2026-05-08 11:58 41.98008 0.37454 28037 ft 387 kts 118°
2026-05-08 11:58 41.97082 0.40859 27656 ft 390 kts 114°
2026-05-08 11:58 41.96198 0.44320 27291 ft 392 kts 114°
2026-05-08 11:59 41.94421 0.51245 26562 ft 391 kts 114°
2026-05-08 11:59 41.93545 0.54649 26207 ft 391 kts 114°
2026-05-08 11:59 41.92645 0.58136 25838 ft 390 kts 114°
2026-05-08 11:59 41.91759 0.61568 25470 ft 388 kts 114°
2026-05-08 12:00 41.90875 0.64996 25105 ft 388 kts 115°
2026-05-08 12:00 41.90007 0.68361 24756 ft 387 kts 115°
2026-05-08 12:00 41.89117 0.71765 24401 ft 386 kts 115°
2026-05-08 12:00 41.88213 0.75145 24073 ft 384 kts 116°
2026-05-08 12:01 41.87296 0.78516 23812 ft 384 kts 116°
2026-05-08 12:01 41.86374 0.81877 23573 ft 384 kts 116°
2026-05-08 12:01 41.85451 0.85237 23298 ft 383 kts 116°
2026-05-08 12:01 41.84536 0.88586 23057 ft 381 kts 116°
2026-05-08 12:02 41.83630 0.91917 22993 ft 380 kts 115°
2026-05-08 12:02 41.82723 0.95249 23003 ft 381 kts 116°
2026-05-08 12:02 41.81813 0.98587 22994 ft 381 kts 116°
2026-05-08 12:02 41.80898 1.01925 22730 ft 380 kts 115°
2026-05-08 12:03 41.79990 1.05245 22455 ft 378 kts 115°
2026-05-08 12:03 41.79087 1.08541 22167 ft 374 kts 115°
2026-05-08 12:03 41.78195 1.11798 21727 ft 371 kts 115°
2026-05-08 12:03 41.77305 1.15039 21278 ft 370 kts 115°
2026-05-08 12:04 41.76416 1.18262 20825 ft 368 kts 115°
2026-05-08 12:04 41.75531 1.21471 20375 ft 367 kts 114°
2026-05-08 12:04 41.74649 1.24666 19936 ft 365 kts 114°
2026-05-08 12:04 41.73769 1.27844 19479 ft 364 kts 114°
2026-05-08 12:05 41.72906 1.30968 19039 ft 362 kts 113°
2026-05-08 12:05 41.72043 1.34095 18597 ft 351 kts 113°
2026-05-08 12:05 41.71200 1.37147 18138 ft 349 kts 112°
2026-05-08 12:05 41.70357 1.40168 17686 ft 342 kts 113°
2026-05-08 12:06 41.69531 1.43114 17277 ft 334 kts 113°
2026-05-08 12:06 41.68722 1.45995 16863 ft 328 kts 113°
2026-05-08 12:06 41.67934 1.48824 16469 ft 321 kts 113°
2026-05-08 12:06 41.67162 1.51600 16063 ft 316 kts 113°
2026-05-08 12:07 41.66402 1.54329 15674 ft 311 kts 113°
2026-05-08 12:07 41.65651 1.57015 15292 ft 307 kts 113°
2026-05-08 12:07 41.64908 1.59667 14908 ft 302 kts 113°
2026-05-08 12:07 41.64175 1.62287 14534 ft 300 kts 113°
2026-05-08 12:08 41.63446 1.64881 14161 ft 297 kts 113°
2026-05-08 12:08 41.62721 1.67456 13791 ft 295 kts 113°
2026-05-08 12:08 41.61999 1.70016 13391 ft 293 kts 113°
2026-05-08 12:08 41.61282 1.72556 13046 ft 291 kts 113°
2026-05-08 12:09 41.60573 1.75076 12670 ft 289 kts 113°
2026-05-08 12:09 41.59866 1.77581 12309 ft 287 kts 113°
2026-05-08 12:09 41.59165 1.80066 11961 ft 285 kts 113°
2026-05-08 12:09 41.58482 1.82498 11601 ft 282 kts 113°
2026-05-08 12:10 41.57787 1.84962 11237 ft 278 kts 113°
2026-05-08 12:10 41.57119 1.87324 10913 ft 274 kts 113°
2026-05-08 12:10 41.56450 1.89684 10563 ft 270 kts 113°
2026-05-08 12:10 41.55789 1.92013 10224 ft 267 kts 113°
2026-05-08 12:11 41.55136 1.94311 9890 ft 263 kts 113°
2026-05-08 12:11 41.54489 1.96591 9532 ft 262 kts 113°
2026-05-08 12:11 41.53843 1.98870 9192 ft 265 kts 113°
2026-05-08 12:11 41.53172 2.01236 8837 ft 277 kts 113°
2026-05-08 12:12 41.52487 2.03644 8453 ft 278 kts 113°
2026-05-08 12:12 41.51801 2.06053 8097 ft 278 kts 112°
2026-05-08 12:12 41.51109 2.08464 7744 ft 278 kts 113°
2026-05-08 12:12 41.50416 2.10873 7381 ft 279 kts 113°
2026-05-08 12:13 41.49734 2.13264 7017 ft 270 kts 113°
2026-05-08 12:13 41.49081 2.15560 6683 ft 260 kts 113°
2026-05-08 12:13 41.48447 2.17780 6354 ft 251 kts 113°
2026-05-08 12:13 41.47835 2.19914 6021 ft 243 kts 113°
2026-05-08 12:14 41.47241 2.21980 5706 ft 233 kts 113°
2026-05-08 12:14 41.46671 2.23962 5415 ft 225 kts 113°
2026-05-08 12:14 41.46124 2.25873 5132 ft 217 kts 113°
2026-05-08 12:14 41.45586 2.27741 4863 ft 216 kts 114°
2026-05-08 12:15 41.44823 2.29432 4569 ft 212 kts 134°
2026-05-08 12:15 41.43690 2.30615 4296 ft 209 kts 154°
2026-05-08 12:15 41.42316 2.31222 4065 ft 208 kts 167°
2026-05-08 12:15 41.40896 2.31625 3758 ft 210 kts 174°
2026-05-08 12:16 41.39445 2.31502 3483 ft 209 kts 194°
2026-05-08 12:16 41.38138 2.30715 3314 ft 206 kts 213°
2026-05-08 12:16 41.37125 2.29391 3090 ft 205 kts 233°
2026-05-08 12:16 41.36479 2.27725 2862 ft 200 kts 243°
2026-05-08 12:17 41.35918 2.26065 2573 ft 194 kts 244°
2026-05-08 12:17 41.35374 2.24459 2334 ft 189 kts 243°
2026-05-08 12:17 41.34838 2.22882 2089 ft 182 kts 243°
2026-05-08 12:17 41.34338 2.21413 1866 ft 170 kts 243°
2026-05-08 12:18 41.33857 2.20001 1628 ft 165 kts 242°
2026-05-08 12:18 41.33394 2.18641 1398 ft 152 kts 243°
2026-05-08 12:18 41.32973 2.17405 1198 ft 145 kts 243°
2026-05-08 12:18 41.32560 2.16195 1018 ft 143 kts 242°
2026-05-08 12:19 41.32150 2.14989 845 ft 143 kts 244°
2026-05-08 12:19 41.31752 2.13775 701 ft 144 kts 244°
2026-05-08 12:19 41.31323 2.12584 480 ft 142 kts 243°
2026-05-08 12:19 41.30900 2.11392 255 ft 142 kts 243°
2026-05-08 12:20 41.30506 2.10177 51 ft 142 kts 243°
2026-05-08 12:20 41.30125 2.09078 19 ft 111 kts 246°
2026-05-08 12:20 41.29876 2.08349 26 ft 61 kts 246°
2026-05-08 12:20 41.29716 2.07954 17 ft 42 kts 227°
2026-05-08 12:21 41.29587 2.07825 16 ft 12 kts 217°
2026-05-08 12:21 41.29511 2.07748 16 ft 15 kts 217°
2026-05-08 12:21 41.29412 2.07696 16 ft 17 kts 160°
2026-05-08 12:21 41.29337 2.07742 17 ft 10 kts 155°
2026-05-08 12:22 41.29271 2.07782 21 ft 6 kts 156°
2026-05-08 12:22 41.29223 2.07811 19 ft 9 kts 153°
2026-05-08 12:22 41.29184 2.07866 19 ft 6 kts 145°
2026-05-08 12:22 41.29142 2.07890 21 ft 5 kts 156°
2026-05-08 12:23 41.29136 2.07894 20 ft 0 kts 156°
2026-05-08 12:23 41.29135 2.07894 20 ft 1 kts 156°
2026-05-08 12:23 41.29134 2.07895 20 ft 0 kts 157°